Hourly Data Report for October 24, 2014

All times are specified in Local Standard Time (LST). Add 1 hour to adjust for Daylight Saving Time where and when it is observed.

OTTAWA INTL A
ONTARIO

45°19'00.000" N
75°40'00.000" W
114.90 m
6106001
71628
YOW

Download Data

Hourly Data (October 2014)
Hourly Data Report for October 24, 2014
Temp Definition
°C
Dew Point Temp Definition
°C
Rel Hum Definition
%
Wind Dir Definition
10's deg

Wind Spd Definition
km/h
Visibility Definition
km
Stn Press Definition
kPa
Hmdx Definition


Wind Chill Definition


Weather Definition


TIME
00:00 Legend Double Dagger 8.4 7.7 95 30 7 24.1 100.03     LegendNANA
01:00 Legend Double Dagger 7.5 7.2 98 21 5 24.1 100.02     Mostly Cloudy
02:00 Legend Double Dagger 6.4 6.1 98 34 7 24.1 99.99     LegendNANA
03:00 Legend Double Dagger 5.5 5.2 98 24 6 24.1 100.00     LegendNANA
04:00 Legend Double Dagger 6.6 5.9 95 36 2 24.1 100.03     Cloudy
05:00 Legend Double Dagger 6.7 5.2 90 30 8 24.1 100.01     LegendNANA
06:00 Legend Double Dagger 6.8 5.3 90 28 5 24.1 100.01     LegendNANA
07:00 Legend Double Dagger 7.0 5.2 88 28 7 24.1 100.00     Mostly Cloudy
08:00 Legend Double Dagger 8.8 5.7 81 31 9 24.1 100.01     LegendNANA
09:00 Legend Double Dagger 10.5 5.1 69 29 10 24.1 100.01     LegendNANA
10:00 Legend Double Dagger 11.9 4.2 59 21 3 24.1 99.98     Mainly Clear
11:00 Legend Double Dagger 13.2 4.4 55 26 9 24.1 99.95     LegendNANA
12:00 Legend Double Dagger 14.1 3.6 49 27 11 24.1 99.87     LegendNANA
13:00 Legend Double Dagger 15.4 2.6 42 27 12 24.1 99.77     Mainly Clear
14:00 Legend Double Dagger 16.2 3.4 42 30 13 24.1 99.72     LegendNANA
15:00 Legend Double Dagger 16.4 4.9 46 28 8 24.1 99.70     LegendNANA
16:00 Legend Double Dagger 15.3 5.0 50 25 10 24.1 99.68     Mainly Clear
17:00 Legend Double Dagger 12.0 4.5 60 26 11 24.1 99.68     LegendNANA
18:00 Legend Double Dagger 11.3 3.9 60 24 10 24.1 99.69     LegendNANA
19:00 Legend Double Dagger 10.1 3.4 63 26 8 24.1 99.69     Clear
20:00 Legend Double Dagger 8.2 3.5 72 25 8 24.1 99.68     LegendNANA
21:00 Legend Double Dagger 9.1 3.1 66 28 15 24.1 99.65     LegendNANA
22:00 Legend Double Dagger 8.5 2.8 67 28 9 24.1 99.63     Clear
23:00 Legend Double Dagger 5.8 1.4 73 25 12 24.1 99.62     LegendNANA

Notes on Data Quality.

Legend

  • E = Estimated
  • M = Missing
  • NA = Not Available
  • ‡ = Partner data that is not subject to review by the National Climate Archives
Date modified: